GPNPE EGCB-EGNH

Flight info

Callsign GPNPE
Flight time N/A
Altitude 3000
Route EGCB / FLY NORTHWEST TO EGNH / LAND EGNH
Aircraft DA40/L-VGD/A

Departure

Time 2026-04-11 20:48
Airport Manchester Barton Aerodrome (EGCB)

Arrival

Time N/A
Airport Blackpool Airport (EGNH)
Time Latitude Longitude Altitude Speed Heading
2026-04-11 20:39 53.47091 -2.38666 71 ft 0 kts 338°
2026-04-11 20:45 53.47091 -2.38667 71 ft 1 kts 341°
2026-04-11 20:45 53.47101 -2.38666 74 ft 8 kts
2026-04-11 20:45 53.47226 -2.38682 76 ft 19 kts 54°
2026-04-11 20:45 53.47191 -2.38497 78 ft 19 kts 166°
2026-04-11 20:46 53.47058 -2.38480 70 ft 18 kts 152°
2026-04-11 20:46 53.47082 -2.38375 74 ft 18 kts 47°
2026-04-11 20:46 53.47139 -2.38404 75 ft 6 kts 269°
2026-04-11 20:47 53.47196 -2.38464 76 ft 16 kts 321°
2026-04-11 20:47 53.47206 -2.38622 76 ft 26 kts 259°
2026-04-11 20:47 53.47145 -2.39312 119 ft 81 kts 262°
2026-04-11 20:47 53.47104 -2.40271 412 ft 88 kts 280°
2026-04-11 20:48 53.47530 -2.41113 676 ft 96 kts 310°
2026-04-11 20:48 53.48074 -2.41817 965 ft 105 kts 332°
2026-04-11 20:48 53.48780 -2.42157 1273 ft 106 kts 337°
2026-04-11 20:48 53.49485 -2.42441 1607 ft 104 kts 335°
2026-04-11 20:49 53.50197 -2.42771 1814 ft 110 kts 336°
2026-04-11 20:49 53.50914 -2.42604 1755 ft 109 kts 26°
2026-04-11 20:49 53.51533 -2.41976 1663 ft 99 kts 24°
2026-04-11 20:49 53.52170 -2.41383 1450 ft 105 kts 26°
2026-04-11 20:50 53.52434 -2.41136 1464 ft 104 kts 25°
2026-04-11 20:50 53.53067 -2.40608 1553 ft 100 kts 22°
2026-04-11 20:50 53.53713 -2.40055 1563 ft 106 kts 23°
2026-04-11 20:50 53.54374 -2.39499 1556 ft 112 kts 23°
2026-04-11 20:51 53.55009 -2.38953 1637 ft 98 kts 24°
2026-04-11 20:51 53.55719 -2.38362 1491 ft 111 kts 24°
2026-04-11 20:51 53.56418 -2.37864 1564 ft 109 kts
2026-04-11 20:51 53.57165 -2.37812 1553 ft 108 kts 350°
2026-04-11 20:52 53.57924 -2.37900 1530 ft 110 kts 347°
2026-04-11 20:52 53.58689 -2.38028 1532 ft 112 kts 347°
2026-04-11 20:52 53.59463 -2.38171 1533 ft 112 kts 346°
2026-04-11 20:52 53.60221 -2.38323 1628 ft 107 kts 344°
2026-04-11 20:53 53.60955 -2.38498 1858 ft 105 kts 343°
2026-04-11 20:53 53.61680 -2.38607 1988 ft 115 kts 344°
2026-04-11 20:53 53.62404 -2.38703 2257 ft 104 kts 344°
2026-04-11 20:53 53.63151 -2.38814 2299 ft 117 kts 344°
2026-04-11 20:54 53.63702 -2.38902 2301 ft 123 kts 345°
2026-04-11 20:54 53.64850 -2.39090 2301 ft 120 kts 345°
2026-04-11 20:54 53.65667 -2.39212 2297 ft 116 kts 345°
2026-04-11 20:54 53.66460 -2.39323 2297 ft 115 kts 345°
2026-04-11 20:55 53.67173 -2.39684 2294 ft 100 kts 304°
2026-04-11 20:55 53.67595 -2.40539 2293 ft 93 kts 297°
2026-04-11 20:55 53.68011 -2.41369 2295 ft 94 kts 298°
2026-04-11 20:55 53.68443 -2.42222 2302 ft 97 kts 299°
2026-04-11 20:56 53.68882 -2.43078 2295 ft 94 kts 300°
2026-04-11 20:56 53.69310 -2.43892 2298 ft 92 kts 300°
2026-04-11 20:56 53.69740 -2.44707 2301 ft 94 kts 300°
2026-04-11 20:56 53.70180 -2.45558 2301 ft 97 kts 300°
2026-04-11 20:57 53.70624 -2.46423 2304 ft 97 kts 300°
2026-04-11 20:57 53.71066 -2.47290 2305 ft 97 kts 300°
2026-04-11 20:57 53.71356 -2.47858 2312 ft 96 kts 300°
2026-04-11 20:57 53.71939 -2.48986 2310 ft 95 kts 300°
2026-04-11 20:58 53.72441 -2.49705 2296 ft 105 kts 333°
2026-04-11 20:58 53.73212 -2.49559 2291 ft 113 kts
2026-04-11 20:58 53.73983 -2.49382 2292 ft 114 kts 357°
2026-04-11 20:58 53.74772 -2.49231 2292 ft 114 kts 356°
2026-04-11 20:59 53.75568 -2.49101 2298 ft 116 kts 355°
2026-04-11 20:59 53.76116 -2.49019 2298 ft 117 kts 355°
2026-04-11 20:59 53.77175 -2.48863 2301 ft 115 kts 354°
2026-04-11 20:59 53.77903 -2.49115 2295 ft 104 kts 328°
2026-04-11 21:00 53.78579 -2.49513 2292 ft 102 kts 329°
2026-04-11 21:00 53.79268 -2.49877 2297 ft 106 kts 330°
2026-04-11 21:00 53.79979 -2.50229 2296 ft 106 kts 332°
2026-04-11 21:00 53.80697 -2.50565 2297 ft 108 kts 332°
2026-04-11 21:01 53.81421 -2.50894 2299 ft 108 kts 332°
2026-04-11 21:01 53.82140 -2.51212 2300 ft 108 kts 333°
2026-04-11 21:01 53.82881 -2.51539 2302 ft 111 kts 333°
2026-04-11 21:01 53.83636 -2.51873 2296 ft 112 kts 333°
2026-04-11 21:02 53.84392 -2.52211 2298 ft 113 kts 333°
2026-04-11 21:02 53.85157 -2.52544 2296 ft 114 kts 333°
2026-04-11 21:02 53.85930 -2.52883 2296 ft 115 kts 333°
2026-04-11 21:02 53.86697 -2.53229 2298 ft 111 kts 333°
2026-04-11 21:03 53.87429 -2.53553 2294 ft 109 kts 333°
2026-04-11 21:03 53.88164 -2.53880 2289 ft 109 kts 333°
2026-04-11 21:03 53.88899 -2.54215 2286 ft 109 kts 333°
2026-04-11 21:03 53.89629 -2.54549 2284 ft 108 kts 333°
2026-04-11 21:04 53.90346 -2.54872 2284 ft 106 kts 333°